Flag for U.S.A. Weather past 2 weeks in Canton, Ohio, U.S.A.

Now
72 °F

Overcast.


Feels Like: 73 °F
Forecast: 67 / 84 °F
Wind: No wind

Location: Akron-Canton Regional Airport

Current Time: Aug 30, 2015 at 2:07:28 AM

Latest Report: Aug 30, 2015 at 1:51 AM


Visibility: 10 mi

Pressure: 30.04 "Hg

Humidity: 76%

Dew point: 64 °F

Location of CantonLocation

Historic Weather in Canton — Graph

°F

Canton temperature yesterday

Maximum temperature yesterday: 83 °F (at 3:51 PM)
Minimum temperature yesterday: 59 °F (at 2:51 AM)
Average temperature yesterday: 72 °F

Past Weeks' High & Low Weather Summary

 TemperatureHumidityPressure
High91 °F (Aug 19, 3:51 PM)94% (Aug 16, 6:51 AM)30.22 "Hg (Aug 16, 6:51 AM)
Low53 °F (Aug 26, 6:51 AM)31% (Aug 21, 4:51 PM)29.76 "Hg (Aug 20, 3:51 AM)
Average71 °F64%30.04 "Hg
* Reported Aug 15 12:51 AM — Aug 30 12:51 AM, Canton, Weather by CustomWeather, © 2015

Note: Actual official high and low records may vary slightly from our data, if they occured in-between our weather recording intervals... More about our weather records

Advertising

Canton weather history for previous 24 hours

 ConditionsComfort  
Time TempWeatherWind HumidityBarometerVisibility
12:51 AM
Sun, Aug 30
71 °FMostly cloudy.No wind78%30.06 "Hg10 mi
11:51 PM
Sat, Aug 29
71 °FPartly cloudy.3 mph76%30.06 "Hg10 mi
10:51 PM74 °FPartly cloudy.No wind69%30.08 "Hg10 mi
9:51 PM74 °FPassing clouds.5 mph69%30.08 "Hg10 mi
8:51 PM75 °FPartly sunny.5 mph66%30.06 "Hg10 mi
7:51 PM76 °FBroken clouds.3 mph62%30.06 "Hg10 mi
6:51 PM79 °FBroken clouds.9 mph56%30.06 "Hg10 mi
5:51 PM83 °FBroken clouds.9 mph48%30.06 "Hg10 mi
4:51 PM82 °FPassing clouds.12 mph49%30.06 "Hg10 mi
3:51 PM83 °FBroken clouds.9 mph48%30.08 "Hg10 mi
2:51 PM82 °FPassing clouds.7 mph48%30.10 "Hg10 mi
1:51 PM81 °FBroken clouds.10 mph49%30.12 "Hg10 mi
12:51 PM80 °FBroken clouds.5 mph47%30.14 "Hg10 mi
11:51 AM79 °FBroken clouds.3 mph48%30.16 "Hg10 mi
10:51 AM77 °FBroken clouds.6 mph48%30.16 "Hg10 mi
9:51 AM68 °FPartly sunny.3 mph70%30.18 "Hg8 mi
8:51 AM64 °FPartly sunny.5 mph78%30.17 "Hg7 mi
7:51 AM61 °FFog.3 mph83%30.17 "Hg6 mi
6:51 AM59 °FFog.5 mph84%30.15 "Hg4 mi
5:51 AM60 °FPassing clouds.No wind80%30.14 "Hg8 mi
4:51 AM60 °FPassing clouds.3 mph80%30.13 "Hg8 mi
2:51 AM59 °FFog.3 mph90%30.15 "Hg6 mi
Weather by CustomWeather, © 2015

See weather overviewHow to use our weather pages